Flag Weather past 2 weeks in Västerås, Sweden

Now
34 °F

Overcast.


Feels Like: 34 °F
Forecast: 31 / 35 °F
Wind: 2 mph from Northeast

Location: Vasteras / Hasslo

Current Time: Nov 28, 2014 at 11:18:58 PM

Latest Report: Nov 28, 2014 at 10:50 PM


Visibility: 6 mi

Pressure: 30.54 "Hg

Humidity: 100%

Dew point: 34 °F

Location of VästeråsLocation

Historic Weather in Västerås — Graph

°F

Västerås temperature yesterday

Maximum temperature yesterday: 36 °F (at 8:20 PM)
Minimum temperature yesterday: 30 °F (at 12:20 AM)
Average temperature yesterday: 33 °F

Past Weeks' High & Low Weather Summary

 TemperatureHumidityPressure
High45 °F (Nov 13, 9:20 PM)100% (Nov 14, 9:20 AM)30.54 "Hg (Nov 14, 9:20 AM)
Low25 °F (Nov 26, 6:50 AM)70% (Nov 19, 10:20 AM)29.80 "Hg (Nov 24, 3:50 PM)
Average38 °F91%30.28 "Hg
* Reported Nov 13 9:20 PM — Nov 28 9:50 PM, Västerås, Weather by CustomWeather, © 2014

Note: Actual official high and low records may vary slightly from our data, if they occured in-between our weather recording intervals... More about our weather records

Advertising

Västerås weather history for previous 24 hours

 ConditionsComfort  
Time TempWeatherWind HumidityBarometerVisibility
9:50 PM
Nov 28
34 °FPassing clouds.3 mph100%30.54 "HgN/A
9:20 PM34 °FOvercast.2 mph100%30.54 "HgN/A
8:50 PM34 °FPassing clouds.5 mph100%30.54 "HgN/A
8:20 PM34 °FPassing clouds.3 mph100%30.54 "Hg5 mi
7:50 PM34 °FFog.2 mph100%30.54 "Hg5 mi
7:20 PM34 °FPassing clouds.No wind100%30.54 "HgN/A
6:50 PM34 °FFog.No wind100%30.51 "Hg4 mi
6:20 PM34 °FPassing clouds.1 mph93%30.51 "HgN/A
5:50 PM34 °FPassing clouds.3 mph100%30.51 "HgN/A
5:20 PM34 °FFog.3 mph100%30.51 "Hg4 mi
4:50 PM34 °FFog.3 mph100%30.51 "Hg2 mi
4:20 PM34 °FFog.5 mph100%30.51 "Hg2 mi
3:50 PM34 °FFog.3 mph100%30.48 "Hg2 mi
3:20 PM36 °FFog.2 mph93%30.48 "Hg2 mi
2:50 PM36 °FFog.3 mph100%30.48 "Hg3 mi
2:20 PM36 °FFog.2 mph100%30.48 "Hg3 mi
1:50 PM36 °FFog.No wind100%30.48 "Hg3 mi
1:20 PM36 °FFog.No wind100%30.48 "Hg2 mi
12:50 PM36 °FFog.No wind100%30.48 "Hg3 mi
12:20 PM36 °FFog.2 mph100%30.48 "Hg3 mi
11:50 AM36 °FFog.3 mph100%30.48 "Hg2 mi
11:20 AM36 °FFog.2 mph93%30.45 "Hg3 mi
10:50 AM34 °FFog.No wind100%30.45 "Hg2 mi
10:20 AM34 °FFog.No wind100%30.45 "Hg2 mi
9:50 AM34 °FFog.No wind100%30.45 "Hg2 mi
9:20 AM34 °FFog.2 mph100%30.42 "Hg1 mi
8:50 AM34 °FFog.2 mph100%30.42 "Hg0 mi
8:20 AM34 °FFog.No wind93%30.42 "Hg0 mi
7:50 AM34 °FFog.3 mph93%30.42 "Hg0 mi
7:20 AM34 °FFog.3 mph93%30.39 "Hg0 mi
6:50 AM34 °FFog.2 mph93%30.39 "Hg1 mi
6:20 AM34 °FFog.5 mph100%30.39 "Hg2 mi
5:50 AM34 °FFog.3 mph100%30.36 "Hg4 mi
5:20 AM34 °FLow clouds.3 mph100%30.36 "Hg4 mi
4:20 AM34 °FFog.5 mph100%30.36 "Hg0 mi
3:50 AM34 °FFog.2 mph100%30.36 "Hg1 mi
3:20 AM36 °FFog.1 mph93%30.36 "Hg1 mi
2:50 AM36 °FFog.3 mph100%30.36 "Hg2 mi
2:20 AM36 °FFog.2 mph100%30.33 "Hg3 mi
1:50 AM36 °FFog.2 mph100%30.33 "Hg2 mi
1:20 AM36 °FFog.2 mph100%30.33 "Hg1 mi
12:50 AM36 °FFog.1 mph100%30.33 "Hg2 mi
12:20 AM36 °FDense fog.1 mph100%30.33 "Hg2 mi
11:50 PM
Nov 27
36 °FFog.2 mph100%30.33 "Hg1 mi
11:20 PM36 °FFog.2 mph100%30.33 "Hg0 mi
Weather by CustomWeather, © 2014

See weather overviewHow to use our weather pages